FW3173 Port Hood CA current weather conditions

sailwx.info

Wind from 209 at 6 knots gusting 15

Air temperature 23.3° C
Dewpoint 21.6° C

Last reported at 2020-Aug-03 22:31 UTC.
Time now 2020-Aug-03 23:26 UTC

Location: N 45°59' W 061°31'.
View on Google Maps.

See reports from other nearby stations

  
Tides and Currents Weather Stations Pressure Air Temp Water Temp Dewpoint Dewpoint Depression Visibility Wind Speed Wind Dir Waves Ship Positions
date/time (UTC)wind fromknots sea level pressurealtimeterstation pressurevisibilityair tempwater tempwave heightnotes
2020-Aug-03 22:31 209 6 gusting 15 23.3
2020-Aug-03 22:25 157 6 gusting 15 22.8
2020-Aug-03 22:20 235 4 gusting 15 22.8
2020-Aug-03 22:16 198 6 gusting 15 22.8
2020-Aug-03 22:10 185 7 gusting 14 22.8
2020-Aug-03 22:06 196 6 gusting 14 22.8
2020-Aug-03 22:01 148 6 gusting 14 22.8
2020-Aug-03 21:55 211 6 gusting 14 22.8
2020-Aug-03 21:50 173 6 gusting 14 22.8
2020-Aug-03 21:45 200 6 gusting 15 22.8
2020-Aug-03 21:40 169 6 gusting 15 22.8
2020-Aug-03 21:35 235 5 gusting 13 23.3
2020-Aug-03 21:25 098 6 gusting 14 23.3
2020-Aug-03 21:20 188 6 gusting 14 23.3
2020-Aug-03 21:10 181 6 gusting 17 23.3
2020-Aug-03 21:05 216 9 gusting 18 23.3
2020-Aug-03 20:55 173 7 gusting 20 23.3
2020-Aug-03 20:50 179 9 gusting 20 23.3
2020-Aug-03 20:35 223 6 gusting 19 23.9
2020-Aug-03 20:25 191 6 gusting 17 23.9
2020-Aug-03 20:15 161 6 gusting 15 23.9
2020-Aug-03 20:10 173 7 gusting 16 23.9
2020-Aug-03 20:00 174 7 gusting 21 23.9
2020-Aug-03 19:50 156 6 gusting 17 23.9
2020-Aug-03 19:40 191 8 gusting 20 24.4
2020-Aug-03 19:35 174 9 gusting 20 24.4
2020-Aug-03 19:25 211 7 gusting 18 25.0
2020-Aug-03 19:20 175 9 gusting 18 25.0
2020-Aug-03 19:10 227 7 gusting 16 25.0
2020-Aug-03 19:05 185 5 gusting 15 24.4
2020-Aug-03 18:55 155 6 gusting 18 24.4
2020-Aug-03 18:50 210 8 gusting 17 25.0
2020-Aug-03 18:45 179 8 gusting 18 25.0
2020-Aug-03 18:40 200 7 gusting 18 25.0
2020-Aug-03 18:35 230 7 gusting 16 25.0
2020-Aug-03 18:26 218 7 gusting 17 25.0
2020-Aug-03 18:21 150 7 gusting 17 25.0
2020-Aug-03 18:16 224 8 gusting 16 25.0
2020-Aug-03 18:06 134 6 gusting 14 24.4
2020-Aug-03 18:01 172 6 gusting 16 24.4
2020-Aug-03 17:56 202 6 gusting 19 25.0
2020-Aug-03 17:51 157 6 gusting 19 25.0
2020-Aug-03 17:48 155 6 gusting 15 25.6
2020-Aug-03 17:40 179 3 gusting 13 25.6
2020-Aug-03 17:35 212 6 gusting 18 25.6
2020-Aug-03 17:33 179 6 gusting 18 26.1
2020-Aug-03 17:20 200 6 gusting 15 25.6
2020-Aug-03 17:16 136 7 gusting 16 25.6
2020-Aug-03 17:10 176 8 gusting 17 25.6
2020-Aug-03 17:05 177 9 gusting 17 26.1
2020-Aug-03 17:02 177 8 gusting 15 26.1
2020-Aug-03 16:55 182 6 gusting 20 26.1
2020-Aug-03 16:50 200 7 gusting 16 25.6
2020-Aug-03 16:46 189 7 gusting 13 25.6
2020-Aug-03 16:40 227 6 gusting 13 25.6
2020-Aug-03 16:35 167 6 gusting 13 25.6
2020-Aug-03 16:31 238 5 gusting 12 25.0
2020-Aug-03 16:25 161 6 gusting 13 24.4
2020-Aug-03 16:20 203 6 gusting 13 24.4
2020-Aug-03 16:16 208 6 gusting 13 23.9
2020-Aug-03 16:10 196 6 gusting 15 23.9
2020-Aug-03 16:06 248 6 gusting 15 23.9
2020-Aug-03 16:01 250 7 gusting 14 23.3
2020-Aug-03 15:50 191 6 gusting 15 23.9
2020-Aug-03 15:45 238 6 gusting 18 24.4
2020-Aug-03 15:40 233 6 gusting 18 25.0
2020-Aug-03 15:35 135 6 gusting 17 25.6
2020-Aug-03 15:31 196 8 gusting 17 25.6
2020-Aug-03 15:25 206 6 gusting 17 25.6
2020-Aug-03 15:21 196 7 gusting 17 25.6
2020-Aug-03 15:15 194 6 gusting 13 25.6
2020-Aug-03 15:10 219 6 gusting 13 25.0
2020-Aug-03 15:05 182 6 gusting 13 25.6
2020-Aug-03 15:01 214 6 gusting 14 25.0
2020-Aug-03 14:55 123 6 gusting 17 25.0
2020-Aug-03 14:50 168 6 gusting 17 25.0
2020-Aug-03 14:45 225 6 gusting 13 25.0
2020-Aug-03 14:40 216 6 gusting 13 24.4
2020-Aug-03 14:35 215 6 gusting 13 24.4
2020-Aug-03 14:30 146 6 gusting 13 24.4
2020-Aug-03 14:25 196 6 gusting 13 24.4
2020-Aug-03 14:20 220 6 gusting 15 23.9
2020-Aug-03 14:15 212 8 gusting 14 23.9
2020-Aug-03 14:10 243 6 gusting 15 23.9
2020-Aug-03 14:05 167 6 gusting 13 23.9
2020-Aug-03 14:00 148 5 gusting 15 23.9
2020-Aug-03 13:55 243 8 gusting 15 23.9
2020-Aug-03 13:50 204 7 gusting 14 23.9
2020-Aug-03 13:40 198 5 gusting 13 23.3
2020-Aug-03 13:30 167 6 gusting 13 23.3
2020-Aug-03 13:25 198 3 gusting 13 23.3
2020-Aug-03 13:20 171 7 gusting 13 22.8
2020-Aug-03 13:10 169 7 gusting 15 22.8
2020-Aug-03 13:05 141 5 gusting 14 22.8
2020-Aug-03 13:00 182 7 gusting 14 22.8
2020-Aug-03 12:55 223 5 gusting 15 22.2
2020-Aug-03 12:45 193 6 gusting 13 22.2
2020-Aug-03 12:40 199 6 gusting 13 22.2
2020-Aug-03 12:35 211 5 gusting 12 22.2
2020-Aug-03 12:25 225 3 gusting 10 22.2
2020-Aug-03 12:20 190 5 gusting 10 22.2
2020-Aug-03 12:15 183 6 gusting 9 22.2
2020-Aug-03 12:10 158 2 gusting 10 21.7
2020-Aug-03 11:50 231 4 gusting 10 21.7
2020-Aug-03 11:46 220 5 gusting 10 21.7
2020-Aug-03 11:40 192 3 gusting 10 21.7
2020-Aug-03 11:36 204 4 gusting 10 21.7
2020-Aug-03 11:32 175 3 gusting 11 21.7
2020-Aug-03 11:26 220 3 gusting 11 21.1
2020-Aug-03 11:16 202 2 gusting 9 21.1
2020-Aug-03 11:10 208 3 gusting 9 21.1
2020-Aug-03 11:06 240 3 gusting 8 21.1
2020-Aug-03 11:03 154 2 gusting 8 20.6
2020-Aug-03 10:56 199 2 gusting 8 20.6
2020-Aug-03 10:51 166 2 gusting 8 20.6
2020-Aug-03 10:47 275 3 gusting 8 20.0
2020-Aug-03 10:40 213 3 gusting 8 20.0
2020-Aug-03 10:35 179 2 gusting 9 20.0
2020-Aug-03 10:30 157 3 gusting 9 20.0
2020-Aug-03 10:25 194 3 gusting 9 19.4
2020-Aug-03 10:20 176 2 gusting 8 19.4
2020-Aug-03 10:15 186 2 gusting 8 18.9
2020-Aug-03 10:10 166 1 gusting 7 18.9
2020-Aug-03 10:05 151 2 gusting 7 18.9
2020-Aug-03 09:55 160 3 gusting 8 18.3
2020-Aug-03 09:50 189 2 gusting 8 18.3
2020-Aug-03 09:47 192 3 gusting 7 18.3
2020-Aug-03 09:40 171 4 gusting 7 18.3
2020-Aug-03 09:35 150 4 gusting 7 18.3
2020-Aug-03 09:31 170 2 gusting 7 18.3
2020-Aug-03 09:26 178 1 gusting 6 18.3
2020-Aug-03 09:20 182 3 gusting 6 18.3
2020-Aug-03 09:15 180 2 gusting 6 18.3
2020-Aug-03 09:10 175 1 gusting 6 18.3
2020-Aug-03 09:05 189 2 gusting 6 18.3
2020-Aug-03 09:02 153 2 gusting 6 18.3
2020-Aug-03 08:56 189 3 gusting 7 18.3
2020-Aug-03 08:50 165 3 gusting 7 17.8
2020-Aug-03 08:46 154 3 gusting 6 17.8
2020-Aug-03 08:40 152 2 gusting 6 17.8
2020-Aug-03 08:35 160 2 gusting 6 17.8
2020-Aug-03 08:32 171 2 gusting 6 17.8
2020-Aug-03 08:25 156 2 gusting 6 17.8
2020-Aug-03 08:20 182 3 gusting 6 17.8
2020-Aug-03 08:16 182 2 gusting 6 17.8
2020-Aug-03 08:10 152 1 gusting 6 17.8
2020-Aug-03 08:05 159 1 gusting 4 17.8
2020-Aug-03 08:00 155 1 gusting 5 18.3
2020-Aug-03 07:55 156 1 gusting 4 18.3
2020-Aug-03 07:50 135 1 gusting 4 18.3
2020-Aug-03 07:46 174 1 gusting 6 18.3
2020-Aug-03 07:40 158 2 gusting 6 18.3
2020-Aug-03 07:36 162 1 gusting 5 18.3
2020-Aug-03 07:30 159 2 gusting 6 18.3
2020-Aug-03 07:25 162 2 gusting 6 18.3
2020-Aug-03 07:20 169 1 gusting 6 18.3
2020-Aug-03 07:16 180 1 gusting 6 18.3
2020-Aug-03 07:10 185 0 gusting 6 18.3
2020-Aug-03 07:05 140 2 gusting 6 18.3
2020-Aug-03 07:00 179 2 gusting 6 18.3
2020-Aug-03 06:55 160 2 gusting 6 18.3
2020-Aug-03 06:50 171 3 gusting 6 18.9
2020-Aug-03 06:46 164 2 gusting 6 18.9
2020-Aug-03 06:40 200 2 gusting 6 18.9
2020-Aug-03 06:35 162 2 gusting 5 18.9
2020-Aug-03 06:31 154 1 gusting 6 18.9
2020-Aug-03 06:25 158 3 gusting 6 18.9
2020-Aug-03 06:20 174 3 gusting 6 18.9
2020-Aug-03 06:16 152 1 gusting 6 18.9
2020-Aug-03 06:10 149 3 gusting 6 18.9
2020-Aug-03 06:05 137 2 gusting 4 18.9
2020-Aug-03 06:00 156 1 gusting 6 18.9
2020-Aug-03 05:55 178 1 gusting 6 18.9
2020-Aug-03 05:50 175 1 gusting 5 18.9
2020-Aug-03 05:45 146 1 gusting 6 18.9
2020-Aug-03 05:40 208 1 gusting 6 19.4
2020-Aug-03 05:35 178 1 gusting 6 19.4
2020-Aug-03 05:31 167 2 gusting 6 19.4
2020-Aug-03 05:25 154 2 gusting 7 19.4
2020-Aug-03 05:20 166 1 gusting 7 19.4
2020-Aug-03 05:15 179 2 gusting 7 19.4
2020-Aug-03 05:10 185 1 gusting 7 19.4
2020-Aug-03 05:05 157 3 gusting 6 19.4
2020-Aug-03 05:00 160 1 gusting 5 19.4
2020-Aug-03 04:55 206 2 gusting 6 19.4
2020-Aug-03 04:50 216 1 gusting 6 19.4
2020-Aug-03 04:46 187 1 gusting 6 19.4
2020-Aug-03 04:40 189 2 gusting 8 19.4
2020-Aug-03 04:35 173 3 gusting 8 19.4
2020-Aug-03 04:30 215 1 gusting 6 19.4
2020-Aug-03 04:25 161 1 gusting 6 19.4
2020-Aug-03 04:20 148 1 gusting 6 19.4
2020-Aug-03 04:15 170 1 gusting 6 20.0
2020-Aug-03 04:10 179 1 gusting 7 20.0
2020-Aug-03 04:05 161 1 gusting 8 20.0
2020-Aug-03 04:00 179 3 gusting 8 20.0
2020-Aug-03 03:55 135 4 gusting 8 20.0
2020-Aug-03 03:50 177 3 gusting 6 20.0
2020-Aug-03 03:40 154 3 gusting 6 20.0
2020-Aug-03 03:35 156 3 gusting 6 20.0
2020-Aug-03 03:25 198 2 gusting 7 20.0
2020-Aug-03 03:20 149 2 gusting 7 20.0
2020-Aug-03 03:10 168 2 gusting 6 20.0
2020-Aug-03 03:05 153 3 gusting 9 20.6
2020-Aug-03 03:00 191 2 gusting 9 20.6
2020-Aug-03 02:55 178 2 gusting 7 20.6
2020-Aug-03 02:50 164 3 gusting 7 20.6
2020-Aug-03 02:40 164 4 gusting 8 20.6
2020-Aug-03 02:35 184 5 gusting 9 20.6
2020-Aug-03 02:30 210 4 gusting 9 21.1
2020-Aug-03 02:20 145 5 gusting 10 21.1
2020-Aug-03 02:10 169 5 gusting 9 21.1
2020-Aug-03 02:05 206 4 gusting 10 21.1
2020-Aug-03 02:00 149 4 gusting 10 21.1
2020-Aug-03 01:55 204 3 gusting 9 21.1
2020-Aug-03 01:50 145 4 gusting 10 21.1
2020-Aug-03 01:45 193 4 gusting 10 21.7
2020-Aug-03 01:40 183 5 gusting 9 21.7
2020-Aug-03 01:35 157 3 gusting 7 21.7
2020-Aug-03 01:30 183 3 gusting 10 21.7
2020-Aug-03 01:25 174 5 gusting 10 21.7
2020-Aug-03 01:20 167 3 gusting 6 21.7
2020-Aug-03 01:15 175 2 gusting 10 21.7
2020-Aug-03 01:10 188 3 gusting 8 21.7
2020-Aug-03 01:05 175 4 gusting 8 21.7
2020-Aug-03 01:00 201 3 gusting 8 22.2
2020-Aug-03 00:50 159 3 gusting 7 22.2
2020-Aug-03 00:41 177 3 gusting 7 22.2
2020-Aug-03 00:31 150 2 gusting 8 22.2
2020-Aug-03 00:25 182 2 gusting 8 22.2
2020-Aug-03 00:21 169 3 gusting 7 22.8
2020-Aug-03 00:17 171 2 gusting 7 22.8
2020-Aug-03 00:10 167 3 gusting 7 22.8
2020-Aug-03 00:05 166 2 gusting 8 22.8
2020-Aug-03 00:01 183 3 gusting 8 22.8
2020-Aug-02 23:55 183 1 gusting 6 22.8
2020-Aug-02 23:50 165 1 gusting 5 22.8
2020-Aug-02 23:47 164 1 gusting 4 23.3
2020-Aug-02 23:40 166 2 gusting 5 23.3
2020-Aug-02 23:35 160 0 gusting 4 23.3
2020-Aug-02 23:32 178 0 gusting 3 23.3
2020-Aug-02 23:25 191 1 gusting 3 23.3
2020-Aug-02 23:21 209 0 gusting 2 23.3
2020-Aug-02 23:16 209 0 gusting 2 23.9
2020-Aug-02 23:10 209 0 gusting 2 23.9
2020-Aug-02 23:06 209 0 gusting 2 23.9
2020-Aug-02 23:02 212 0 gusting 2 23.9
2020-Aug-02 22:55 212 0 gusting 1 23.9
2020-Aug-02 22:50 212 23.9
2020-Aug-02 22:46 212 24.4
2020-Aug-02 22:40 212 24.4
2020-Aug-02 22:35 212 25.0
2020-Aug-02 22:31 212 25.6
2020-Aug-02 22:26 212 25.6
2020-Aug-02 22:20 212 0 gusting 2 25.6
2020-Aug-02 22:18 212 0 gusting 2 25.6
2020-Aug-02 22:10 212 0 gusting 2 25.6
2020-Aug-02 22:05 212 26.1
2020-Aug-02 22:00 212 1 gusting 3 26.1
2020-Aug-02 21:55 210 0 gusting 3 26.1
2020-Aug-02 21:51 220 26.1
2020-Aug-02 21:46 219 26.1
2020-Aug-02 21:40 212 0 gusting 3 26.7
2020-Aug-02 21:35 225 26.7
2020-Aug-02 21:32 224 0 gusting 3 26.7
2020-Aug-02 21:25 222 0 gusting 3 27.2
2020-Aug-02 21:20 221 1 gusting 2 26.7
2020-Aug-02 21:16 222 0 gusting 2 26.7
2020-Aug-02 21:05 191 1 gusting 4 26.7
2020-Aug-02 21:01 210 1 gusting 4 27.2
2020-Aug-02 20:55 237 1 gusting 3 27.2
2020-Aug-02 20:50 239 1 gusting 4 27.2
2020-Aug-02 20:47 308 1 gusting 6 27.2
2020-Aug-02 20:40 240 2 gusting 6 27.2
2020-Aug-02 20:35 279 1 gusting 4 27.2
2020-Aug-02 20:32 247 2 gusting 5 27.2
2020-Aug-02 20:25 284 0 gusting 5 27.2
2020-Aug-02 20:20 270 1 gusting 3 26.7
2020-Aug-02 20:16 282 0 gusting 4 26.7
2020-Aug-02 20:10 235 2 gusting 4 26.7
2020-Aug-02 20:05 243 1 gusting 4 26.1
2020-Aug-02 20:01 265 2 gusting 5 26.1
2020-Aug-02 19:55 270 2 gusting 5 25.6
2020-Aug-02 19:50 280 1 gusting 6 25.6
2020-Aug-02 19:45 241 2 gusting 6 25.6
2020-Aug-02 19:40 233 2 gusting 6 25.6
2020-Aug-02 19:35 302 2 gusting 6 25.0
2020-Aug-02 19:30 243 3 gusting 6 25.0
2020-Aug-02 19:25 261 2 gusting 7 25.0
2020-Aug-02 19:20 239 3 gusting 7 25.6
2020-Aug-02 19:15 242 1 gusting 7 25.6
2020-Aug-02 19:10 252 2 gusting 7 25.0
2020-Aug-02 19:05 282 3 gusting 7 25.0
2020-Aug-02 19:00 275 3 gusting 7 25.0
2020-Aug-02 18:55 233 2 gusting 7 25.0
2020-Aug-02 18:50 275 3 gusting 8 25.0
2020-Aug-02 18:45 240 4 gusting 8 25.0
2020-Aug-02 18:40 248 2 gusting 6 25.0
2020-Aug-02 18:35 237 3 gusting 6 24.4
2020-Aug-02 18:25 243 2 gusting 6 24.4
2020-Aug-02 18:20 270 2 gusting 7 24.4
2020-Aug-02 18:16 228 4 gusting 7 24.4
2020-Aug-02 18:10 295 3 gusting 7 24.4
2020-Aug-02 18:00 270 3 gusting 7 24.4
2020-Aug-02 17:55 294 3 gusting 6 24.4
2020-Aug-02 17:50 275 3 gusting 7 23.9
2020-Aug-02 17:45 238 2 gusting 6 23.9
2020-Aug-02 17:40 280 2 gusting 8 23.9
2020-Aug-02 17:30 256 2 gusting 6 23.9
2020-Aug-02 17:25 235 3 gusting 6 23.9
2020-Aug-02 17:20 237 2 gusting 5 23.3
2020-Aug-02 17:15 270 1 gusting 6 23.3
2020-Aug-02 17:05 270 1 gusting 5 23.3
2020-Aug-02 16:55 283 2 gusting 6 22.8
2020-Aug-02 16:50 286 2 gusting 6 22.8
2020-Aug-02 16:45 257 1 gusting 5 22.8
2020-Aug-02 16:40 261 2 gusting 5 22.8
2020-Aug-02 16:35 275 1 gusting 8 22.8
2020-Aug-02 16:25 252 4 gusting 7 22.2
2020-Aug-02 16:20 216 3 gusting 8 22.2
2020-Aug-02 16:10 241 3 gusting 8 22.2
2020-Aug-02 16:05 256 2 gusting 7 22.8
2020-Aug-02 16:00 281 2 gusting 5 22.8
2020-Aug-02 15:55 302 2 gusting 5 22.8
2020-Aug-02 15:50 312 1 gusting 6 22.8
2020-Aug-02 15:45 297 2 gusting 6 22.8
2020-Aug-02 15:40 265 2 gusting 6 22.8
2020-Aug-02 15:26 247 4 gusting 6 22.2
2020-Aug-02 15:21 258 3 gusting 6 22.2
2020-Aug-02 15:16 258 3 gusting 6 22.2
2020-Aug-02 15:15 225 2 gusting 6 22.2
2020-Aug-02 15:05 341 3 gusting 7 22.2
2020-Aug-02 15:01 245 2 gusting 6 22.2
2020-Aug-02 14:55 305 3 gusting 6 21.7
2020-Aug-02 14:51 275 3 gusting 8 21.7
2020-Aug-02 14:46 288 2 gusting 8 21.7
2020-Aug-02 14:40 248 3 gusting 7 21.7
2020-Aug-02 14:36 251 3 gusting 7 21.1
2020-Aug-02 14:31 212 3 gusting 7 21.7
2020-Aug-02 14:26 265 2 gusting 7 21.1
2020-Aug-02 14:20 235 4 gusting 8 21.1
2020-Aug-02 14:16 275 3 gusting 8 21.1
2020-Aug-02 14:10 310 2 gusting 6 21.1
2020-Aug-02 14:05 221 1 gusting 6 21.1
2020-Aug-02 13:55 259 2 gusting 5 21.1
2020-Aug-02 13:50 214 1 gusting 5 21.1
2020-Aug-02 13:47 231 3 gusting 5 21.1
2020-Aug-02 13:40 225 2 gusting 6 21.1
2020-Aug-02 13:36 281 1 gusting 7 21.1
2020-Aug-02 13:32 237 4 gusting 7 20.6
2020-Aug-02 13:25 239 3 gusting 7 20.6
2020-Aug-02 13:20 254 2 gusting 6 20.6
2020-Aug-02 13:16 298 2 gusting 7 20.6
2020-Aug-02 13:11 216 3 gusting 7 21.1
2020-Aug-02 13:05 229 1 gusting 6 21.1
2020-Aug-02 13:00 241 2 gusting 7 21.1
2020-Aug-02 12:55 287 4 gusting 7 21.1
2020-Aug-02 12:51 239 1 gusting 6 21.1
2020-Aug-02 12:47 223 2 gusting 6 21.1
2020-Aug-02 12:40 286 2 gusting 5 20.6
2020-Aug-02 12:35 323 2 gusting 4 20.6
2020-Aug-02 12:31 357 1 gusting 5 20.6
2020-Aug-02 12:25 275 1 gusting 6 20.6
2020-Aug-02 12:20 322 3 gusting 6 20.6
2020-Aug-02 12:16 325 2 gusting 7 20.6
2020-Aug-02 12:10 260 2 gusting 7 20.6
2020-Aug-02 12:05 281 1 gusting 6 20.6
2020-Aug-02 12:00 248 2 gusting 6 20.6
2020-Aug-02 11:55 275 2 gusting 7 20.0
2020-Aug-02 11:50 329 2 gusting 7 20.6
2020-Aug-02 11:46 265 0 gusting 5 20.6
2020-Aug-02 11:40 289 1 gusting 6 20.6
2020-Aug-02 11:35 275 3 gusting 6 20.0
2020-Aug-02 11:30 281 1 gusting 5 20.0
2020-Aug-02 11:25 292 1 gusting 5 19.4
2020-Aug-02 11:20 275 2 gusting 5 19.4
2020-Aug-02 11:15 283 0 gusting 3 19.4
2020-Aug-02 11:10 305 1 gusting 3 19.4
2020-Aug-02 11:05 292 0 gusting 3 18.9
2020-Aug-02 11:01 290 0 gusting 5 18.9
2020-Aug-02 10:55 292 1 gusting 5 18.9
2020-Aug-02 10:50 304 1 gusting 5 18.9
2020-Aug-02 10:45 296 1 gusting 5 18.9
2020-Aug-02 10:40 307 0 gusting 5 18.9
2020-Aug-02 10:35 323 0 gusting 2 18.9
2020-Aug-02 10:30 321 1 gusting 2 18.9
2020-Aug-02 10:25 350 0 gusting 2 18.9
2020-Aug-02 10:20 015 0 gusting 2 18.3
2020-Aug-02 10:15 016 18.3
2020-Aug-02 10:10 016 18.3
2020-Aug-02 10:05 016 17.8
2020-Aug-02 10:00 017 0 gusting 1 17.8
2020-Aug-02 09:55 006 17.8
2020-Aug-02 09:50 006 17.8
2020-Aug-02 09:45 002 0 gusting 3 17.8
2020-Aug-02 09:40 007 17.8
2020-Aug-02 09:35 358 17.8
2020-Aug-02 09:31 014 0 gusting 4 17.8
2020-Aug-02 09:25 321 0 gusting 4 17.8
2020-Aug-02 09:20 346 0 gusting 5 17.8
2020-Aug-02 09:15 316 2 gusting 7 17.8
2020-Aug-02 09:10 356 3 gusting 7 17.8
2020-Aug-02 09:05 341 2 gusting 8 17.8
2020-Aug-02 09:00 341 3 gusting 8 17.8
2020-Aug-02 08:55 346 3 gusting 7 17.8
2020-Aug-02 08:50 341 3 gusting 7 17.8
2020-Aug-02 08:45 339 2 gusting 8 17.8
2020-Aug-02 08:40 309 2 gusting 9 17.8
2020-Aug-02 08:35 006 3 gusting 9 17.8
2020-Aug-02 08:25 308 3 gusting 6 17.8
2020-Aug-02 08:20 319 2 gusting 5 17.8
2020-Aug-02 08:15 335 1 gusting 10 17.8
2020-Aug-02 08:10 335 3 gusting 10 17.8
2020-Aug-02 08:05 335 1 gusting 5 17.8
2020-Aug-02 08:00 352 2 gusting 6 17.8
2020-Aug-02 07:55 325 3 gusting 6 17.8
2020-Aug-02 07:50 346 2 gusting 6 17.8
2020-Aug-02 07:40 331 0 gusting 6 17.8
2020-Aug-02 07:35 335 2 gusting 7 17.8
2020-Aug-02 07:30 323 2 gusting 7 17.8
2020-Aug-02 07:25 354 1 gusting 6 17.8
2020-Aug-02 07:20 335 2 gusting 6 17.8
2020-Aug-02 07:10 327 3 gusting 7 17.8
2020-Aug-02 07:05 323 2 gusting 9 17.8
2020-Aug-02 07:00 341 4 gusting 9 17.8
2020-Aug-02 06:55 352 4 gusting 8 17.8
2020-Aug-02 06:50 344 3 gusting 8 17.8
2020-Aug-02 06:45 339 3 gusting 8 17.8
2020-Aug-02 06:40 346 2 gusting 8 17.8
2020-Aug-02 06:32 346 1 gusting 6 17.8
2020-Aug-02 06:25 321 2 gusting 6 17.8
2020-Aug-02 06:20 332 2 gusting 6 17.8
2020-Aug-02 06:18 348 1 gusting 6 17.8
2020-Aug-02 06:10 310 2 gusting 6 17.8
2020-Aug-02 06:05 314 2 gusting 6 17.8
2020-Aug-02 06:01 338 2 gusting 8 17.8
2020-Aug-02 05:56 296 3 gusting 8 17.8
2020-Aug-02 05:51 333 2 gusting 6 17.8
2020-Aug-02 05:48 038 1 gusting 6 17.8
2020-Aug-02 05:41 344 0 gusting 8 18.3
2020-Aug-02 05:35 341 3 gusting 11 18.3
2020-Aug-02 05:34 341 3 gusting 11 17.8
2020-Aug-02 05:25 354 3 gusting 10 17.8
2020-Aug-02 05:20 335 4 gusting 13 17.8
2020-Aug-02 05:17 018 4 gusting 13 18.3
2020-Aug-02 05:10 353 3 gusting 11 18.3
2020-Aug-02 05:05 337 5 gusting 11 18.3
2020-Aug-02 05:01 308 4 gusting 12 18.3
2020-Aug-02 04:55 330 4 gusting 12 17.8
2020-Aug-02 04:50 349 3 gusting 8 17.8
2020-Aug-02 04:46 345 4 gusting 11 17.8
2020-Aug-02 04:40 341 5 gusting 11 17.8
2020-Aug-02 04:35 323 4 gusting 13 17.8
2020-Aug-02 04:31 347 6 gusting 13 17.8
2020-Aug-02 04:25 333 7 gusting 13 17.8
2020-Aug-02 04:20 332 6 gusting 12 18.3
2020-Aug-02 04:16 319 6 gusting 13 18.3
2020-Aug-02 04:11 339 6 gusting 13 18.3
2020-Aug-02 04:05 355 6 gusting 12 18.3
2020-Aug-02 04:01 036 3 gusting 13 18.3
2020-Aug-02 03:55 344 6 gusting 14 18.3
2020-Aug-02 03:50 333 4 gusting 14 18.3
2020-Aug-02 03:46 308 6 gusting 14 18.3
2020-Aug-02 03:40 315 5 gusting 14 18.3
2020-Aug-02 03:35 333 5 gusting 14 18.3
2020-Aug-02 03:31 289 6 gusting 14 18.3
2020-Aug-02 03:25 314 6 gusting 12 18.3
2020-Aug-02 03:20 356 4 gusting 12 18.3
2020-Aug-02 03:16 289 6 gusting 12 18.3
2020-Aug-02 03:10 056 4 gusting 10 18.3
2020-Aug-02 03:05 352 4 gusting 11 18.3
2020-Aug-02 03:01 337 4 gusting 11 17.8
2020-Aug-02 02:55 319 2 gusting 10 17.8
2020-Aug-02 02:50 287 4 gusting 10 18.3
2020-Aug-02 02:46 348 4 gusting 11 17.8
2020-Aug-02 02:40 329 6 gusting 11 17.8
2020-Aug-02 02:35 343 3 gusting 11 17.8
2020-Aug-02 02:30 308 5 gusting 11 17.8
2020-Aug-02 02:25 334 3 gusting 11 17.8
2020-Aug-02 02:20 343 5 gusting 15 17.8
2020-Aug-02 02:16 339 6 gusting 15 17.8
2020-Aug-02 02:10 275 6 gusting 14 17.8
2020-Aug-02 02:05 328 2 gusting 9 17.8
2020-Aug-02 02:00 331 5 gusting 9 17.8
2020-Aug-02 01:55 301 4 gusting 8 17.8
2020-Aug-02 01:50 315 4 gusting 7 17.8
2020-Aug-02 01:45 009 4 gusting 7 17.8
2020-Aug-02 01:40 358 2 gusting 9 17.8
2020-Aug-02 01:35 336 3 gusting 9 17.2
2020-Aug-02 01:30 326 3 gusting 9 17.2
2020-Aug-02 01:25 295 3 gusting 8 17.2
2020-Aug-02 01:05 308 5 gusting 13 17.8
2020-Aug-02 01:00 344 6 gusting 13 17.8
2020-Aug-02 00:55 323 6 gusting 13 17.8
2020-Aug-02 00:50 311 6 gusting 13 17.8
2020-Aug-02 00:45 331 6 gusting 12 17.8
2020-Aug-02 00:40 317 4 gusting 12 17.8
2020-Aug-02 00:35 353 6 gusting 14 17.8
2020-Aug-02 00:30 306 7 gusting 14 17.8
2020-Aug-02 00:25 344 6 gusting 11 17.8
2020-Aug-02 00:16 354 6 gusting 13 17.8
2020-Aug-02 00:10 325 4 gusting 13 17.2
2020-Aug-02 00:05 325 5 gusting 11 17.2
2020-Aug-01 23:55 339 4 gusting 10 17.2
2020-Aug-01 23:50 341 4 gusting 14 17.2
2020-Aug-01 23:45 350 6 gusting 12 17.8
2020-Aug-01 23:40 343 4 gusting 10 17.8
2020-Aug-01 23:30 312 3 gusting 8 17.8
2020-Aug-01 23:25 282 4 gusting 9 17.8
2020-Aug-01 23:20 306 4 gusting 9 17.8
2020-Aug-01 23:10 326 3 gusting 10 17.8
2020-Aug-01 23:05 339 3 gusting 10 17.8